Location: ??
(34.9170°N, 135.5016°E)
Time: 12:31:00
(UTC+00:00)

ADEOS - Pass Details

Date: 29 October 2020
Orbit: 793 x 794 km, 98.9° (Epoch: 26 November)

Event Time Altitude Azimuth Distance (km) Brightness Sun altitude
Rises 19:25:17 0° 13° (NNE) 3,300 6.9 -23.4°
Reaches altitude 10° 19:27:37 10° 14° (NNE) 2,366 6.2 -22.9°
Maximum altitude 19:32:51 85° 103° (ESE) 801 3.5 -21.8°
Drops below altitude 10° 19:38:03 10° 193° (SSW) 2,352 5.9 -20.8°
Sets 19:40:22 0° 193° (SSW) 3,277 6.7 -20.3°
